Theta_e
339 339 338 339 339 339 340 339 338 338 338 338 339 338 339 339 338 337 338 338 337 337 336 336 336 335 335 335 334 334 334 334 333 333 333 334 334 334 334 334 333 333 333 334 334 333 333 332 332 332 330 331 333 334 333 331 330 329 328 326 324 324 325 325 325 326 325 325 325 324 324 323 322 323 322 324 325 325 325 325 326 328 328 327 327
339 338 338 339 339 339 340 340 339 339 338 338 339 339 339 339 339 338 338 339 338 337 336 337 336 336 335 336 335 334 334 334 334 334 334 334 335 334 334 334 333 333 333 333 333 333 334 334 333 333 332 330 333 335 333 332 330 329 328 326 325 324 325 325 325 326 325 324 325 325 325 324 323 323 322 322 324 324 323 324 325 327 328 328 327
339 339 338 339 339 339 340 340 339 339 339 340 339 339 339 338 339 338 337 338 338 337 336 336 335 335 335 335 336 335 335 335 334 334 334 334 334 334 334 334 333 333 333 333 333 332 333 335 335 334 333 332 333 335 334 333 332 330 329 327 326 325 325 326 326 326 326 323 324 325 325 324 324 323 323 322 322 323 322 323 325 326 327 327 327
340 340 339 339 339 339 339 339 340 340 340 339 339 339 339 338 339 338 338 337 337 337 336 336 336 335 335 336 336 336 336 336 336 335 335 334 334 335 335 334 334 334 334 334 333 333 332 334 335 335 335 333 333 334 335 335 333 331 330 328 327 327 326 326 326 326 326 324 324 325 325 325 324 324 324 322 321 322 322 323 324 325 326 326 326
340 340 340 339 339 339 339 339 340 339 339 339 339 339 339 339 339 339 339 338 338 337 337 337 336 336 336 336 336 336 336 336 336 336 336 336 336 336 336 335 335 334 334 334 334 334 334 334 334 335 335 335 334 333 334 336 335 333 331 329 328 328 327 326 325 326 326 325 324 325 326 325 325 325 324 322 321 322 322 323 324 325 325 326 326
340 340 340 339 339 339 338 338 339 339 339 339 339 339 339 339 339 338 338 337 337 337 337 337 336 336 337 337 337 336 336 336 337 336 337 337 337 337 336 336 336 335 335 335 335 335 335 335 335 335 335 335 335 334 333 334 335 334 332 330 329 328 328 327 326 326 326 325 324 325 326 325 325 326 325 323 322 322 322 322 324 324 324 325 325
340 340 340 339 338 338 339 338 338 339 340 339 339 339 338 339 339 338 338 337 337 336 336 337 336 336 336 337 337 337 336 337 337 337 337 337 337 338 337 337 336 336 337 337 337 336 336 335 336 336 335 335 335 335 334 332 334 335 334 332 330 329 328 327 326 326 326 326 324 324 326 325 325 326 325 324 323 323 323 323 322 323 324 325 324
340 340 340 339 338 338 339 338 338 339 338 338 338 338 338 338 338 337 337 337 337 336 336 337 337 337 336 337 337 337 337 337 337 337 337 337 337 337 337 337 337 337 337 337 338 337 337 337 336 337 336 336 336 335 335 333 333 334 335 334 332 330 329 328 327 326 326 326 324 324 325 325 325 326 326 324 324 323 324 323 321 323 324 324 324
339 338 338 338 337 337 338 338 338 338 337 337 337 337 337 337 337 336 336 336 336 337 337 336 336 336 336 336 336 337 337 336 337 336 337 337 338 338 337 337 337 337 337 337 337 337 337 337 337 337 337 337 337 336 336 335 334 333 334 335 333 331 330 329 328 327 326 327 325 323 325 326 324 326 326 325 324 323 324 322 320 322 324 323 323
337 337 337 337 337 337 337 337 337 337 336 337 336 336 336 335 335 335 335 335 336 335 335 334 335 335 335 335 335 334 335 335 335 335 336 337 337 337 337 337 336 336 336 336 337 337 337 337 337 337 337 337 337 337 336 336 335 333 333 334 333 332 332 330 329 328 327 327 326 324 324 325 324 325 326 326 324 323 324 322 319 322 323 323 322
336 336 336 335 335 335 335 335 335 335 334 334 334 334 334 333 333 333 334 334 333 333 332 332 332 333 333 332 332 332 333 333 333 334 335 336 337 337 336 335 335 334 335 336 336 336 335 335 335 335 335 334 335 335 335 336 336 335 333 332 332 332 333 332 331 330 329 328 327 325 324 325 324 324 325 326 324 322 324 322 319 322 322 322 322
334 334 334 333 332 331 332 332 332 332 331 331 330 330 330 330 330 330 331 331 331 330 329 330 331 331 330 330 330 331 331 332 335 336 336 337 338 337 337 335 334 334 335 335 335 335 335 335 335 334 334 333 334 334 333 334 335 335 335 333 332 332 332 332 331 331 331 329 328 326 325 324 324 324 324 326 325 323 324 322 319 321 321 321 322
332 331 331 331 330 329 329 329 330 330 329 328 328 328 327 327 327 327 327 328 328 327 327 329 329 330 330 329 329 328 329 333 335 334 333 333 333 333 333 333 333 334 334 335 335 335 335 334 333 333 334 333 333 334 333 333 334 334 335 335 333 332 331 331 331 331 332 330 329 328 326 324 323 323 324 326 326 324 324 323 321 321 321 322 323
329 328 328 328 327 327 326 326 326 327 327 326 325 326 325 324 324 325 325 325 326 325 325 327 327 328 329 330 331 329 329 332 333 330 329 329 329 329 329 329 330 330 331 333 334 334 333 333 333 333 333 333 333 333 334 334 334 334 334 334 335 334 332 332 332 332 331 331 331 330 328 325 323 323 323 325 326 325 325 325 323 322 322 322 323
326 325 325 325 325 325 324 323 323 324 324 324 323 323 323 322 322 323 323 323 324 323 323 324 325 326 328 331 333 333 332 330 328 327 327 328 327 326 327 327 326 326 327 328 329 329 330 330 330 330 331 331 331 332 333 334 334 334 334 334 334 335 334 333 332 332 332 332 331 331 330 328 325 323 323 324 326 326 325 325 325 323 322 323 323
323 323 323 323 323 323 323 322 321 322 322 322 321 321 321 321 321 321 321 321 322 322 321 322 321 323 326 329 330 332 331 327 325 325 326 326 325 325 324 323 323 324 324 324 324 323 324 324 325 326 326 327 328 330 331 333 334 334 334 334 334 333 334 333 332 333 332 331 332 332 331 330 327 324 324 324 325 326 326 325 326 325 323 323 323
321 320 320 320 320 321 321 320 319 320 320 319 319 319 320 320 319 319 319 319 320 319 319 319 319 320 322 324 326 328 326 323 324 325 325 324 324 323 322 321 320 320 321 321 320 320 320 320 321 322 322 324 326 328 329 331 332 333 333 333 333 332 334 334 333 333 332 331 332 333 332 330 328 325 324 324 325 325 326 325 325 326 325 324 323
319 318 318 318 318 318 319 318 318 318 318 318 318 318 318 318 317 317 317 317 318 317 316 316 317 317 317 319 321 322 321 321 323 323 322 322 322 321 319 319 316 316 319 318 317 317 315 316 317 319 320 322 325 325 326 327 327 328 328 328 329 330 330 332 332 332 333 332 332 333 332 332 329 327 325 325 325 325 325 325 325 326 326 325 324
317 317 317 317 316 317 317 317 317 317 317 317 317 317 316 316 316 316 316 316 316 315 314 315 315 314 315 316 316 317 318 319 319 319 320 320 319 318 317 315 314 315 316 314 313 312 310 312 314 316 319 320 321 322 323 326 324 321 321 320 323 327 328 329 330 331 332 333 333 333 332 332 331 329 326 324 325 325 325 325 325 326 326 326 325
316 316 316 316 315 315 316 316 316 316 316 315 314 314 314 314 313 313 313 314 314 313 313 313 313 313 313 313 313 314 316 316 315 316 317 317 316 315 313 312 312 313 312 311 311 310 310 312 312 314 317 315 317 319 319 321 319 316 315 312 316 324 326 326 327 328 331 332 333 333 332 332 332 331 328 325 324 326 325 324 325 325 326 326 325
315 315 315 315 314 314 314 315 315 314 315 314 312 311 311 311 311 311 312 312 311 311 311 311 311 311 311 312 312 313 315 314 313 313 314 315 315 313 311 311 311 311 310 309 309 309 310 311 311 313 313 310 313 315 312 312 311 309 308 306 312 321 325 326 324 323 327 330 331 332 332 333 332 331 330 327 324 325 325 324 324 325 325 326 326
314 313 313 313 313 312 312 313 313 313 314 313 312 311 311 311 311 311 311 311 310 311 311 311 311 311 311 311 312 313 313 313 311 311 312 312 312 311 311 311 310 309 309 308 307 308 308 309 310 310 309 308 311 311 307 306 305 303 303 303 307 313 317 321 320 318 321 326 330 331 331 332 332 331 331 329 326 325 325 324 324 325 325 326 326
311 311 311 311 311 310 311 312 312 312 313 313 312 312 311 312 312 311 311 311 311 311 310 310 310 310 310 311 311 311 311 310 309 309 309 310 310 310 310 309 309 308 307 306 306 306 306 307 308 307 306 308 308 306 305 304 303 302 304 303 303 307 311 314 315 315 317 321 326 329 330 330 331 331 331 331 329 327 326 325 324 325 325 325 327
309 309 309 309 309 309 310 311 311 311 312 312 311 310 311 311 311 311 310 310 310 310 309 309 309 309 310 309 309 308 308 308 307 307 307 308 308 309 308 307 306 306 306 305 305 304 305 305 305 304 305 306 305 303 303 303 302 303 304 303 304 307 310 312 312 313 316 320 324 327 330 330 330 330 331 331 330 328 327 326 324 325 325 325 327
309 308 308 308 309 309 309 309 310 310 310 310 308 308 309 310 310 310 309 308 308 308 308 308 308 308 308 307 306 306 307 306 305 305 306 306 307 306 306 305 305 305 304 304 304 304 304 303 303 303 303 303 303 302 303 303 303 303 303 303 305 306 308 308 308 310 314 319 323 327 329 330 329 329 330 331 330 329 328 327 325 324 324 325 326
309 308 307 307 308 308 308 308 308 308 308 308 307 306 307 308 307 308 308 307 307 307 307 307 307 306 306 305 304 304 305 305 304 305 305 304 304 303 303 303 303 303 303 303 303 303 303 302 302 302 302 302 302 301 301 302 302 302 303 304 305 305 305 305 306 308 311 314 317 322 327 329 329 328 329 330 330 330 329 328 325 324 324 324 326
308 307 306 306 306 306 307 307 307 306 306 306 306 306 306 306 306 306 307 306 306 306 306 306 306 305 304 304 303 303 304 303 303 303 302 301 301 301 301 301 301 301 302 302 301 301 301 301 301 301 301 300 300 300 300 301 301 302 303 304 304 304 304 305 306 307 308 310 312 317 322 326 329 329 329 329 330 330 330 328 326 324 324 324 325
307 307 306 306 305 305 305 306 306 306 306 305 305 305 305 305 305 306 306 306 306 306 306 305 306 305 304 303 303 302 303 302 302 301 299 298 299 299 300 300 300 300 300 300 300 300 300 300 300 299 299 299 299 299 299 300 301 302 303 303 303 303 304 305 306 306 307 310 312 315 320 324 327 329 329 328 328 330 330 329 327 325 324 324 325
307 306 306 305 305 305 305 305 305 305 305 305 304 304 304 304 305 305 305 305 305 305 305 305 305 304 303 303 302 302 302 301 300 299 298 297 298 298 298 299 299 299 299 299 299 299 299 299 299 299 299 299 299 298 299 299 300 301 301 301 302 303 303 304 304 305 307 309 311 313 317 322 326 327 328 328 328 328 329 329 327 325 324 324 325
306 306 305 305 305 305 304 304 304 305 305 305 305 304 304 304 304 304 305 305 304 304 304 304 304 303 302 302 301 301 300 300 299 298 297 297 297 297 297 298 298 298 298 298 298 298 298 298 298 298 298 298 298 298 298 299 299 300 300 301 301 302 302 303 304 305 306 306 307 310 314 318 321 323 325 328 328 328 328 329 328 326 325 324 324
306 305 305 304 304 304 303 303 303 304 304 304 305 304 304 304 304 304 304 304 303 303 303 303 303 302 301 301 300 300 299 298 297 297 297 297 297 297 296 297 297 297 297 297 297 298 298 298 298 298 298 297 298 298 298 298 299 299 300 300 300 301 301 302 303 304 304 305 308 311 312 313 313 315 318 323 327 327 327 328 328 327 326 324 323
305 304 304 303 303 303 302 302 302 302 303 303 304 304 304 304 304 304 304 303 303 303 303 302 302 301 301 300 299 299 297 296 297 297 297 297 297 296 296 296 296 296 297 297 297 297 297 297 297 297 297 297 297 298 298 298 298 299 299 299 300 300 300 301 301 302 303 305 308 309 308 308 309 313 316 320 324 327 327 327 327 327 327 325 323
305 304 303 303 302 301 301 301 301 301 302 302 303 304 304 304 304 304 304 303 303 303 302 302 301 301 300 299 298 298 297 296 297 297 297 297 296 296 296 296 296 296 296 296 297 297 297 296 296 297 297 297 297 297 298 298 298 298 298 299 299 299 299 300 300 301 303 304 305 304 304 306 310 313 315 317 320 324 326 327 327 327 327 327 324
305 304 303 302 301 300 299 298 298 299 300 301 303 304 304 304 304 304 303 303 303 302 302 301 301 300 299 299 298 297 297 297 297 297 296 295 295 295 295 295 296 296 296 296 296 296 296 296 296 297 297 297 297 297 298 298 298 298 298 298 298 298 299 299 300 301 301 302 301 301 303 306 309 310 311 313 315 320 324 326 327 326 327 327 325
304 304 303 302 300 299 298 296 295 296 298 300 303 304 304 304 304 304 303 302 302 302 301 300 300 299 299 298 298 297 297 297 297 296 294 294 294 294 294 295 295 295 295 296 296 296 296 296 296 297 297 297 297 297 297 297 297 298 298 298 298 298 298 299 299 299 299 300 300 301 303 304 305 306 307 308 310 315 320 324 326 326 326 326 326
304 304 302 301 299 298 297 295 294 295 297 300 303 303 303 304 304 303 303 302 302 301 301 300 299 299 299 298 297 297 297 297 296 294 293 293 294 294 294 294 295 295 295 296 296 296 296 297 297 296 296 297 297 297 297 297 298 298 298 298 298 298 298 298 298 298 299 299 300 301 302 302 302 302 303 305 309 314 318 321 324 326 325 325 326
303 303 301 300 298 296 294 294 295 296 297 300 302 303 303 303 303 303 303 302 301 301 300 299 299 298 298 298 297 297 297 296 295 293 293 293 293 294 294 295 295 295 295 296 296 296 296 296 296 296 296 296 296 296 297 297 297 297 297 297 297 297 297 297 297 297 298 298 299 299 299 300 300 300 302 307 312 315 317 319 322 323 325 325 325
303 302 301 301 298 294 293 294 295 296 297 299 301 302 302 303 303 302 302 301 300 300 300 299 298 298 298 298 298 297 296 296 295 294 293 293 293 294 295 295 295 295 295 296 296 296 296 296 296 296 296 296 296 296 296 296 297 297 297 296 296 296 296 296 296 296 297 297 297 297 298 299 299 300 304 309 311 311 314 317 320 321 323 323 324
303 302 302 301 298 294 293 294 295 296 297 298 300 301 302 302 302 302 301 300 300 300 300 299 298 298 297 298 297 297 296 296 295 294 293 293 293 293 294 295 295 295 295 296 295 295 295 295 295 295 295 296 296 296 296 296 296 296 296 296 296 296 296 296 296 296 296 296 296 296 297 298 299 302 305 306 306 307 309 313 317 319 321 322 322
302 302 301 301 298 295 293 294 295 296 297 298 299 300 301 301 302 301 301 300 299 299 299 299 298 297 297 297 297 297 296 296 295 294 293 293 293 293 294 295 295 295 295 295 295 295 295 295 295 295 295 295 296 296 296 296 296 296 296 296 296 296 296 296 296 296 295 296 296 296 297 298 300 302 302 302 302 303 305 308 313 317 319 321 322
302 302 300 298 296 294 293 294 295 296 297 297 298 299 300 301 301 301 301 300 300 299 299 298 298 297 297 297 297 296 296 296 295 294 293 293 293 293 293 294 294 295 295 295 295 295 295 295 295 295 295 295 295 296 296 296 296 296 296 296 296 296 296 296 296 296 295 295 296 296 297 298 299 299 299 299 300 301 302 304 308 313 316 319 321
302 300 296 294 293 293 293 294 295 296 296 297 297 298 299 300 300 300 300 300 300 298 298 298 298 297 297 297 297 296 296 295 294 293 293 293 293 293 293 294 294 295 295 295 295 295 295 295 294 295 295 295 295 295 295 295 296 296 295 295 296 296 296 296 296 295 295 296 296 296 296 297 297 298 298 299 299 300 301 302 304 308 311 315 318
302 299 295 292 292 292 292 293 294 295 296 296 297 298 299 299 300 300 300 300 300 298 298 298 298 297 297 297 296 296 295 294 293 293 293 293 293 294 294 294 294 294 294 295 295 295 295 295 294 294 295 295 295 295 295 295 295 295 295 295 295 295 295 295 296 295 295 295 295 296 296 296 296 297 297 298 299 300 301 301 303 305 307 311 315
302 301 298 294 292 291 292 292 293 294 295 296 297 298 298 299 299 300 299 299 299 298 297 298 298 297 297 296 296 295 294 294 293 293 293 293 293 294 293 294 294 294 294 294 295 295 295 295 294 294 295 295 295 295 295 295 295 295 295 295 295 295 295 295 295 295 295 295 295 295 296 296 296 297 297 298 299 300 301 302 303 305 307 310 314
302 302 301 298 295 292 291 291 292 292 293 295 296 298 298 298 298 298 299 299 299 299 298 298 298 297 297 296 295 295 294 294 294 293 293 294 294 294 294 294 294 294 294 294 294 294 295 295 294 294 295 295 295 295 295 295 295 295 295 295 295 295 295 295 295 295 295 295 295 295 295 295 295 296 297 298 299 300 301 302 304 306 308 310 313
302 302 301 301 300 297 293 291 291 291 291 292 295 297 298 298 297 297 297 298 298 298 298 298 298 297 296 296 295 295 294 294 294 294 294 294 294 294 294 294 294 294 294 294 294 294 294 294 294 294 294 295 295 295 294 294 294 294 294 294 294 295 295 295 295 295 295 295 295 295 295 296 296 297 298 299 300 301 302 303 305 307 309 311 314
302 302 301 301 301 300 298 294 292 292 291 291 292 294 296 297 297 296 296 296 297 298 298 298 298 297 296 296 295 295 295 294 294 294 294 294 294 294 294 294 294 294 294 294 294 294 294 294 294 294 294 294 294 294 294 294 294 294 294 294 294 294 294 294 295 295 295 295 295 296 296 296 297 298 299 300 301 302 303 304 306 308 310 312 315
302 302 302 301 301 301 300 297 294 293 292 291 290 291 293 295 296 295 294 293 295 297 297 297 297 297 296 296 296 296 295 294 294 294 294 294 294 294 294 294 294 294 294 294 294 294 294 294 294 294 294 294 294 294 294 294 294 294 294 294 294 294 294 294 295 295 295 295 295 296 297 298 299 300 301 301 302 303 304 304 306 308 311 314 316
300 300 301 301 301 301 299 297 296 295 294 292 291 290 291 292 293 293 292 291 292 295 297 297 297 297 297 297 296 296 294 294 294 294 294 294 294 294 294 294 294 294 294 294 294 294 294 294 294 294 293 293 294 294 294 294 294 294 293 293 294 294 294 294 294 295 295 295 295 296 297 299 299 300 301 301 302 303 304 305 307 309 312 315 317
297 296 297 298 299 298 297 296 297 297 295 293 291 290 291 291 292 292 292 291 291 294 296 296 296 296 296 296 295 295 294 295 295 294 294 294 294 294 294 293 294 294 294 294 294 293 293 294 293 293 293 293 293 294 294 294 294 293 293 293 293 293 294 294 294 294 294 295 295 296 297 298 298 298 300 301 302 304 305 308 311 313 314 315 318
298 298 297 297 298 298 298 298 298 297 296 294 292 290 291 292 292 293 293 292 292 293 295 296 296 296 295 295 295 295 295 295 294 294 294 294 294 294 294 294 293 294 294 294 294 293 293 293 293 293 293 293 293 293 293 294 294 293 293 293 293 293 293 293 294 294 294 295 295 296 297 298 298 299 300 302 304 305 306 309 313 315 317 318 318
Wind_Speed
0 2 1 1 2 2 3 4 4 3 4 4 4 5 5 6 6 6 7 7 8 8 8 6 6 7 8 9 10 12 12 12 13 13 13 14 13 14 14 15 16 17 16 16 17 17 18 18 17 16 15 13 13 16 17 15 13 10 9 9 6 6 7 6 6 6 6 6 6 4 4 4 6 7 7 9 9 9 10 7 7 7 8 8 7
2 3 3 2 3 3 3 4 5 4 4 5 4 5 6 7 7 8 8 8 9 9 8 8 8 8 8 9 10 11 12 13 13 14 15 15 15 15 16 17 18 18 18 18 18 18 18 19 18 17 17 15 14 17 17 15 14 12 11 11 8 6 7 7 7 7 7 8 7 6 5 5 5 5 6 8 9 11 12 10 9 9 9 8 7
2 3 4 3 3 3 1 2 4 5 5 5 4 4 5 5 7 7 8 8 9 9 9 10 10 10 10 10 11 12 13 13 13 13 14 14 15 16 17 18 18 17 17 17 19 19 18 18 19 19 18 17 16 17 18 17 16 14 12 12 10 7 7 8 8 8 8 9 9 8 7 7 6 5 6 7 8 11 13 12 10 11 10 10 9
3 4 4 3 3 3 3 4 5 4 5 5 5 5 5 6 6 7 7 8 8 8 9 10 10 10 11 11 12 13 12 12 12 12 13 13 14 15 16 17 17 17 17 17 17 17 17 17 18 19 19 19 17 17 18 18 18 17 15 13 12 10 8 9 9 9 9 10 10 9 8 8 7 7 6 7 8 10 13 13 11 12 11 11 10
3 4 3 3 4 4 5 6 5 5 6 6 7 7 7 8 7 7 8 9 9 8 9 10 10 10 11 11 12 13 13 13 13 13 14 15 15 16 16 16 17 17 17 16 17 16 16 16 17 17 18 20 19 19 18 18 18 18 17 15 14 14 11 10 10 10 11 11 11 10 9 9 9 8 7 8 9 10 13 14 13 12 11 11 10
3 3 2 3 4 6 5 4 4 5 6 6 6 6 6 7 7 7 8 10 9 9 10 10 11 12 12 12 13 14 14 14 15 14 14 14 15 16 16 16 16 17 17 16 17 17 17 17 17 17 17 18 19 20 20 20 19 18 18 17 16 16 15 12 12 12 12 12 13 12 11 10 10 10 9 9 9 10 12 13 14 12 11 11 10
4 4 5 5 4 6 6 4 5 5 4 4 5 5 5 6 7 8 9 9 9 10 10 11 13 13 13 13 14 14 14 14 15 15 15 15 15 15 16 16 16 17 18 17 17 18 18 18 18 18 18 17 18 19 21 22 21 19 19 19 19 19 17 15 14 13 13 14 14 14 13 12 12 11 10 10 10 11 11 12 14 13 11 11 10
5 5 8 8 6 8 9 7 6 4 4 3 4 5 5 6 7 8 9 10 11 12 11 12 13 13 13 13 14 15 15 15 16 16 16 16 15 15 15 15 16 17 18 18 18 19 18 18 18 18 18 18 18 19 20 22 23 22 21 21 21 20 20 18 16 14 14 15 15 16 15 14 14 13 12 12 11 11 11 12 14 15 13 12 11
8 8 11 12 11 11 10 8 7 5 4 4 4 5 6 6 6 7 9 10 11 12 13 13 13 13 13 13 13 14 15 15 16 16 16 16 15 14 14 14 15 16 17 18 19 19 18 17 18 18 18 17 17 18 19 21 23 24 23 22 21 20 21 20 18 17 16 15 16 17 17 15 16 15 14 13 12 12 12 11 13 15 14 14 13
10 11 13 13 12 11 10 9 8 7 6 6 6 6 6 7 7 6 7 8 10 12 13 13 13 12 12 12 13 13 14 15 16 16 15 15 14 14 14 15 15 15 16 17 17 17 17 18 18 18 18 18 18 18 19 20 22 24 24 24 23 21 23 22 20 19 18 16 17 18 18 18 18 17 16 15 14 13 13 12 13 16 15 15 14
10 11 13 13 12 11 10 10 9 9 9 8 9 9 8 8 8 8 7 8 12 14 13 13 13 11 11 12 12 11 12 14 16 16 17 15 13 13 14 15 15 16 17 17 16 15 16 18 20 21 21 20 19 18 18 19 20 22 24 26 26 24 25 24 22 21 19 18 18 19 20 20 20 20 18 17 16 15 14 13 14 16 16 16 16
10 10 12 13 13 12 11 10 9 10 11 11 12 11 12 11 10 10 9 8 12 15 15 14 13 12 13 12 10 10 12 13 11 11 13 13 13 15 16 18 18 17 16 16 15 16 17 19 21 23 24 23 21 19 18 19 19 20 22 25 27 26 26 25 24 24 23 21 20 20 22 22 21 21 21 19 18 17 16 16 16 17 17 17 17
9 9 11 12 13 12 11 10 8 10 11 12 11 11 12 12 11 10 11 11 13 16 17 15 15 15 15 14 14 11 9 8 9 11 12 11 12 15 17 20 20 19 19 17 16 17 17 18 19 22 23 23 23 21 20 19 19 19 19 22 25 27 29 29 27 27 26 24 22 22 23 24 23 23 23 22 21 19 18 18 18 18 19 19 18
9 9 10 11 12 12 12 11 9 9 10 10 9 9 11 12 12 12 11 11 12 16 19 16 14 14 11 11 13 13 11 7 6 11 17 16 17 19 20 22 22 21 20 17 17 18 19 19 19 20 22 23 23 23 23 22 21 21 20 20 22 25 29 31 30 29 26 25 26 25 25 26 25 25 25 23 22 21 20 20 20 20 20 20 19
9 9 10 10 10 11 12 12 11 9 9 9 9 9 11 12 13 13 12 12 12 15 19 18 17 14 7 5 6 8 9 10 13 18 18 17 20 21 21 24 24 22 23 24 22 20 20 20 20 21 22 23 24 24 24 24 23 23 22 21 21 23 27 30 31 30 27 27 30 29 27 28 27 28 27 25 24 23 23 22 21 21 21 21 20
11 10 11 11 10 9 10 12 12 11 10 10 10 11 12 12 12 13 14 14 13 15 16 20 22 16 7 3 3 4 4 9 18 20 15 17 21 21 22 25 26 24 25 27 26 26 26 25 24 25 26 27 28 27 26 27 26 26 24 24 24 23 25 28 28 30 31 30 32 32 29 30 30 30 28 27 26 25 24 24 23 23 23 22 22
12 12 12 12 10 9 10 11 12 12 12 12 13 12 12 12 12 13 15 15 14 15 16 18 22 20 13 5 3 3 2 8 15 13 14 19 18 21 23 24 27 27 26 27 28 29 30 30 29 27 29 32 32 28 25 24 24 24 22 22 25 26 26 28 27 30 32 31 32 33 31 31 31 31 30 28 28 27 26 25 25 24 24 23 23
12 13 13 13 11 9 10 12 14 13 13 14 14 14 13 13 13 12 14 15 14 17 18 17 18 20 19 13 8 6 5 9 7 7 16 18 13 18 22 24 29 27 25 28 30 32 32 32 31 29 29 31 31 30 28 24 21 19 19 21 22 24 26 29 31 30 30 32 34 33 31 32 33 33 31 29 29 29 28 27 26 26 25 24 23
12 12 12 13 13 10 9 12 15 14 13 15 16 15 14 13 13 12 14 15 16 19 19 18 17 18 19 18 15 14 12 11 6 5 11 12 15 21 21 25 29 24 25 29 31 33 34 32 31 30 28 27 28 30 28 26 25 24 26 28 27 26 25 25 28 30 29 31 34 34 32 33 33 33 32 30 30 30 29 30 29 27 27 26 25
12 11 10 12 14 11 9 11 14 14 14 17 17 14 14 14 15 15 15 16 18 18 18 17 16 16 18 18 17 17 16 16 14 10 5 6 15 20 24 31 27 20 24 29 30 32 32 30 30 28 27 27 28 28 28 27 27 27 28 29 27 25 26 26 26 27 29 31 33 33 33 33 35 34 34 33 33 33 32 31 31 30 29 28 28
11 11 9 10 13 13 11 12 14 14 14 17 18 16 17 18 19 20 19 19 19 18 18 18 17 16 17 17 17 17 15 15 18 15 7 4 7 11 22 32 28 23 26 28 30 30 28 28 28 27 27 29 28 27 29 30 30 31 31 29 26 24 25 27 29 29 27 29 31 31 31 33 36 36 36 35 35 35 35 33 32 32 31 31 30
10 12 11 11 12 14 14 15 16 16 15 16 17 18 19 20 20 20 19 18 18 18 18 17 17 17 17 16 15 16 13 11 15 16 10 7 6 6 14 20 21 26 29 30 31 29 26 26 26 27 30 30 28 29 33 33 34 34 32 30 27 25 25 27 30 31 30 29 28 30 31 32 32 34 38 39 37 37 37 36 35 34 34 33 32
12 12 13 13 14 16 17 17 18 17 16 16 17 16 17 17 17 18 18 17 17 18 18 18 17 17 19 20 17 17 17 15 17 19 14 9 7 6 11 15 16 23 29 29 28 26 25 25 25 27 29 28 29 32 34 35 36 36 34 33 31 28 27 27 29 31 32 32 29 29 31 32 31 34 40 41 39 39 38 37 37 36 35 34 34
15 15 15 15 16 18 18 18 18 18 17 17 17 15 14 15 16 16 17 17 17 17 17 19 19 18 21 23 21 21 23 21 20 21 18 16 12 7 11 16 14 18 27 28 25 25 23 23 25 27 27 27 30 32 34 36 37 37 36 35 33 30 29 28 29 30 31 32 31 30 29 31 32 33 38 41 41 40 39 38 39 38 37 36 35
15 16 16 16 17 19 19 19 18 18 16 17 17 15 14 15 16 16 17 17 16 17 17 18 19 20 22 23 23 23 23 22 21 21 21 20 17 11 13 17 13 16 23 25 25 24 21 22 26 27 26 28 31 33 35 36 38 38 37 36 34 33 33 32 32 31 31 31 31 31 30 29 33 33 34 39 43 42 41 40 40 40 39 38 37
15 17 16 16 17 18 19 19 18 17 16 16 17 16 15 16 17 17 18 17 16 17 17 17 19 20 21 23 23 23 22 21 21 22 23 22 20 16 15 15 14 16 19 23 25 23 21 26 27 25 27 30 32 35 36 37 37 38 38 37 37 36 35 35 33 33 33 33 32 32 32 31 31 33 33 37 41 44 44 43 42 42 42 41 41
15 17 17 16 17 17 17 18 18 17 16 15 16 17 16 16 18 18 18 17 16 17 17 17 19 19 20 21 22 22 22 22 22 24 25 24 23 22 18 12 10 11 13 18 22 22 24 29 29 26 28 32 36 37 37 37 37 37 37 37 38 38 37 36 36 37 35 33 32 31 32 33 31 30 32 37 41 45 47 46 44 43 43 44 43
16 17 17 17 17 17 17 17 17 17 17 16 16 16 17 17 17 18 17 16 16 17 17 17 18 19 19 20 21 21 21 22 22 24 25 26 24 24 21 15 10 8 8 10 13 18 26 30 31 33 33 35 38 40 39 38 36 35 36 36 38 39 38 38 38 38 35 32 32 32 30 31 31 30 30 35 41 45 46 46 46 44 45 46 45
17 16 17 17 17 16 16 16 16 17 17 17 17 16 16 17 17 18 17 16 16 17 17 16 17 19 20 20 20 21 21 22 23 24 25 26 25 24 22 20 15 9 7 8 8 13 24 29 31 36 39 39 39 41 40 38 35 35 36 36 37 38 38 39 39 37 35 34 34 33 31 30 31 32 32 32 37 42 44 46 47 47 47 47 46
16 16 16 16 16 16 16 15 15 16 16 17 17 16 16 17 17 17 16 15 16 17 16 16 17 19 20 20 20 22 22 22 23 23 24 25 25 24 23 22 20 14 9 9 9 14 24 29 31 35 39 41 40 41 39 37 36 36 36 36 36 37 38 39 38 37 36 36 34 32 31 30 30 33 35 34 34 39 45 47 48 48 48 48 48
16 16 15 15 15 16 16 15 14 15 15 15 16 16 16 16 16 16 15 15 16 17 16 16 16 17 19 20 21 21 21 21 21 22 23 24 24 24 24 23 22 20 17 13 9 15 23 26 30 34 37 39 39 39 39 39 38 36 36 37 36 37 38 38 37 37 36 35 32 31 31 30 30 32 34 34 34 36 42 47 46 46 50 51 51
16 16 15 14 14 14 14 14 13 13 14 13 14 14 15 15 14 14 14 14 15 16 16 16 16 17 18 20 21 20 20 21 21 21 22 23 24 24 24 24 23 22 21 17 11 15 23 24 28 32 33 35 37 37 38 40 39 37 37 37 37 37 37 37 38 38 36 34 33 33 33 33 32 31 32 32 33 35 38 45 47 47 49 53 54
15 15 15 14 13 13 12 12 12 11 12 12 12 14 15 15 14 13 13 13 14 15 15 16 17 17 18 20 21 19 19 21 22 21 22 24 25 25 24 23 23 22 22 20 15 16 22 25 26 28 29 32 34 35 37 38 39 39 38 37 38 38 37 38 39 37 35 35 36 38 36 33 32 31 30 31 31 34 36 40 46 49 50 53 56
16 16 16 14 13 13 12 11 10 10 10 11 12 13 15 15 14 13 13 13 14 15 15 16 17 17 18 20 19 17 18 20 21 21 24 26 25 25 24 22 22 22 21 20 19 18 23 27 27 27 28 29 31 32 34 36 38 39 39 39 39 38 38 38 38 37 37 38 40 39 35 33 33 32 30 30 30 31 34 37 42 48 51 53 56
16 15 14 14 13 12 12 12 11 10 10 11 13 12 13 14 14 13 12 13 14 15 15 15 15 16 17 18 18 16 16 18 20 23 26 27 25 23 23 21 20 21 22 21 20 20 23 26 27 26 28 29 29 30 32 35 36 37 38 40 39 39 39 38 37 39 40 39 39 37 34 35 36 34 31 31 30 30 32 36 39 46 51 54 57
15 14 13 12 12 12 12 12 12 12 11 11 12 12 12 13 14 13 12 12 13 13 13 13 13 13 15 16 16 15 15 17 21 26 29 28 26 24 22 21 20 20 21 22 21 21 22 23 25 26 27 29 29 30 32 33 34 35 36 37 38 39 40 38 38 40 40 38 37 36 36 37 38 36 33 30 29 29 29 32 38 43 48 53 56
17 15 13 12 12 13 12 12 14 15 13 11 11 11 12 13 13 12 12 11 12 12 12 13 13 13 13 14 14 14 15 18 22 26 29 28 26 24 22 22 22 21 21 22 21 22 22 22 25 27 27 27 27 29 31 31 33 35 35 35 36 37 38 39 40 40 39 39 38 38 40 40 39 37 32 28 27 28 27 27 34 41 46 52 56
17 15 14 12 13 14 13 13 15 16 15 13 11 10 11 11 11 13 14 12 11 10 11 12 13 13 14 12 12 14 17 19 20 23 27 27 26 25 23 23 24 23 22 22 22 22 22 23 24 26 27 26 26 27 28 30 31 32 34 35 34 33 34 38 41 42 41 41 41 40 39 40 39 35 30 27 27 28 26 25 29 36 44 50 54
16 15 13 12 12 14 14 14 15 15 15 14 12 11 11 11 11 12 13 12 10 9 9 10 11 13 13 12 11 14 17 18 19 22 24 25 26 26 25 24 25 25 23 22 23 23 22 22 23 24 25 24 25 26 29 31 30 28 30 32 33 34 34 35 38 43 44 43 42 40 37 36 36 31 28 30 30 29 28 25 25 30 38 44 50
17 16 14 12 12 14 14 14 14 14 15 15 13 12 11 11 10 10 10 10 10 10 8 9 11 12 12 11 10 13 17 18 18 21 23 24 26 27 26 25 25 26 24 23 23 23 22 22 22 23 23 23 24 27 30 30 28 26 28 30 32 35 36 36 36 39 43 43 41 40 37 33 31 31 33 36 34 31 31 28 24 25 33 39 45
19 17 14 12 11 13 15 14 14 13 14 14 14 13 11 11 10 9 9 9 9 10 8 8 9 11 11 9 8 11 16 16 18 20 21 22 24 26 27 25 24 25 25 24 24 24 23 21 22 23 23 22 24 26 27 28 28 29 31 32 31 33 37 39 38 37 36 37 38 38 35 31 31 36 39 39 39 36 34 31 26 24 27 34 42
18 15 14 14 14 16 17 15 13 13 13 13 12 11 10 10 9 9 9 9 9 9 9 7 7 9 10 8 7 10 14 16 19 21 20 21 23 24 25 25 24 25 25 26 26 25 23 21 22 24 22 22 25 27 28 31 32 31 32 31 30 32 34 33 34 36 32 29 32 36 36 35 36 39 41 40 41 39 35 32 29 26 26 29 37
16 14 15 18 18 18 18 17 15 13 12 11 10 10 9 9 9 8 9 10 9 8 11 8 5 6 9 7 7 11 15 17 20 22 21 21 22 23 24 25 24 24 25 26 27 27 25 23 24 25 23 23 27 29 31 32 33 32 32 32 30 30 28 22 24 32 31 26 28 35 40 40 36 37 41 41 39 38 35 33 31 28 27 28 31
15 13 14 17 19 19 18 18 16 14 12 10 9 9 10 9 8 8 9 10 9 8 11 10 3 3 8 7 7 13 18 20 21 22 22 23 24 25 26 26 26 26 25 26 28 29 28 26 25 26 26 26 28 30 32 34 35 35 35 33 30 28 28 25 23 30 34 31 29 32 39 40 34 33 38 39 37 37 36 34 31 28 27 27 29
16 14 12 12 15 17 19 18 17 16 14 11 9 8 9 9 8 8 9 10 10 9 12 13 7 3 5 7 10 16 20 20 22 23 24 25 26 27 28 28 28 27 27 27 27 28 29 28 27 27 29 29 29 32 37 38 37 37 35 33 32 30 29 29 28 33 38 35 29 29 34 39 35 31 35 38 36 36 36 34 31 27 26 27 28
17 15 12 10 9 12 16 19 19 18 15 13 10 7 8 8 8 9 9 9 9 8 12 15 9 3 4 8 13 19 20 21 23 24 24 27 27 28 29 29 29 29 28 29 29 29 29 28 28 30 32 31 32 36 42 42 39 37 36 35 36 35 35 35 36 40 41 37 32 26 27 36 36 30 32 36 36 35 35 34 31 28 26 26 27
17 15 13 10 8 7 10 15 19 20 18 15 12 9 8 7 7 9 11 9 7 7 11 15 11 4 5 9 14 20 22 22 22 22 24 27 29 30 31 31 29 29 29 29 30 31 31 30 28 30 32 34 37 41 44 43 41 39 39 38 39 39 39 38 37 37 36 33 30 22 21 31 34 28 31 36 35 35 36 34 31 29 26 25 27
16 15 14 11 9 7 7 10 15 18 19 18 15 12 9 7 6 9 13 11 8 6 9 14 14 7 6 9 15 21 23 21 21 23 25 29 31 32 33 32 31 30 30 30 31 33 33 29 27 29 33 37 41 43 43 43 43 42 42 40 38 35 32 29 27 28 28 26 24 22 22 29 30 25 29 35 33 33 37 36 33 29 26 24 25
15 14 14 13 10 7 6 8 11 15 17 18 16 13 11 9 8 11 14 14 12 8 7 12 15 11 8 11 16 20 20 20 23 27 29 30 32 33 33 33 32 31 31 32 33 34 33 28 27 32 37 40 42 43 43 43 43 44 41 36 34 32 26 19 17 22 25 24 23 21 21 27 28 25 29 35 33 32 36 37 33 29 26 25 25
15 14 14 13 12 9 8 9 9 11 14 16 15 14 13 13 13 13 15 16 14 11 8 9 13 13 11 12 15 16 19 23 28 30 29 31 33 33 33 34 32 30 32 34 35 36 33 30 31 36 40 42 42 42 43 43 43 43 38 34 34 33 25 17 17 21 24 25 23 19 20 26 29 27 28 29 29 30 31 30 28 26 26 26 25
14 13 12 11 10 8 7 8 8 9 11 13 14 13 12 14 15 14 15 16 15 13 11 10 10 12 12 13 14 17 22 26 29 29 28 29 30 31 33 33 30 30 34 36 36 36 34 32 34 38 41 42 42 42 42 43 43 42 38 35 35 32 26 23 22 19 16 16 16 14 17 22 24 24 23 17 14 18 21 21 21 24 26 26 25
Wind_Direction
151 79 85 82 105 93 27 7 10 2 345 345 335 344 344 340 338 326 332 326 312 320 327 322 310 303 296 290 285 288 290 284 281 283 282 284 288 287 285 287 290 292 289 286 289 290 290 290 288 284 277 267 260 264 270 271 269 272 276 272 264 233 223 226 221 221 227 226 228 223 217 216 206 210 211 204 204 201 189 197 213 192 174 171 162
72 65 72 82 83 64 23 2 11 14 1 2 358 354 344 341 343 335 337 331 321 326 328 323 320 317 317 313 300 294 295 289 281 278 279 280 281 284 287 291 292 291 288 288 289 287 285 286 287 284 280 272 258 257 264 265 264 267 270 268 261 241 224 221 223 225 229 230 230 226 223 225 215 208 209 205 207 208 194 191 214 207 187 181 176
85 68 73 81 74 75 66 3 20 27 9 353 339 332 326 326 332 328 325 323 322 325 326 323 321 321 320 317 312 310 307 301 296 289 283 281 282 286 290 292 293 292 292 294 293 289 285 283 284 283 281 277 262 258 262 262 263 263 263 264 258 246 231 226 223 223 228 231 232 228 223 226 222 211 214 210 206 210 197 189 207 212 200 190 187
80 60 59 63 77 99 89 65 49 22 355 345 344 350 352 339 330 332 329 323 317 317 326 326 320 320 319 315 312 313 314 311 311 307 301 298 298 297 296 295 294 295 297 299 298 293 287 285 283 281 281 279 268 259 259 260 263 264 260 257 256 251 239 230 222 219 223 230 234 230 222 222 221 218 218 211 205 205 196 189 200 210 207 198 193
81 68 59 50 65 68 50 57 50 6 347 350 357 0 351 337 332 335 330 325 321 319 325 324 320 317 313 312 307 305 309 310 312 311 310 309 308 305 301 300 301 302 301 301 300 296 292 289 287 284 281 279 273 262 255 255 258 261 258 252 249 250 247 236 225 220 221 227 233 228 222 221 219 219 216 211 204 200 197 193 198 208 207 201 195
81 79 64 33 49 53 38 49 47 3 345 347 344 343 339 338 339 330 321 323 324 323 324 324 326 325 320 317 310 304 303 303 305 305 306 306 305 308 307 307 308 307 305 302 301 300 298 296 294 291 285 279 275 269 260 254 252 253 254 250 244 246 248 244 232 223 219 223 230 229 222 218 219 218 214 214 207 202 203 197 198 206 205 200 195
66 69 65 46 47 58 41 33 41 11 347 345 335 341 350 348 346 335 328 331 330 330 332 331 328 325 322 322 320 317 312 307 304 301 300 299 299 302 304 305 305 306 306 303 301 302 301 300 299 297 294 286 279 274 267 260 253 247 247 247 243 244 248 247 240 229 222 221 225 227 221 217 219 217 213 216 213 209 207 202 201 202 200 197 193
72 73 69 61 62 64 52 48 51 33 12 9 3 11 11 2 3 360 350 346 343 342 342 337 331 327 322 320 319 317 314 309 305 303 300 299 299 299 300 300 300 302 303 302 302 304 303 300 300 300 299 295 287 280 273 265 257 250 248 245 240 243 248 247 242 234 227 221 223 225 220 217 219 216 213 214 215 214 211 211 205 198 195 194 196
84 84 80 77 79 76 70 73 74 66 56 48 39 32 23 14 15 17 6 355 349 349 348 343 337 332 328 324 321 315 311 309 305 305 304 301 302 303 304 304 301 301 300 299 300 303 303 301 300 301 301 298 293 287 279 271 263 256 252 246 239 239 244 244 241 236 230 222 222 224 217 216 218 217 213 210 215 214 214 218 203 196 197 194 197
90 88 86 84 83 81 79 77 75 73 67 60 52 39 33 26 17 23 21 15 12 6 357 348 340 337 337 333 327 318 310 310 308 305 303 301 303 306 307 307 305 304 303 301 299 301 303 303 301 299 298 296 296 295 288 278 270 263 255 250 247 243 240 240 236 231 228 223 221 221 215 215 217 218 214 207 212 211 211 217 199 193 198 194 194
89 88 83 75 69 68 68 65 59 56 51 46 39 28 25 20 14 16 17 32 30 14 1 352 345 341 339 334 329 327 324 322 315 306 299 297 301 309 311 312 311 309 310 306 301 301 303 303 301 297 295 295 295 297 296 289 279 270 262 256 253 250 242 237 233 227 224 221 220 219 215 215 216 218 216 208 208 207 207 211 198 193 197 193 190
82 84 81 74 65 58 56 55 49 44 40 33 28 25 21 12 10 11 8 23 25 12 4 358 352 342 335 339 342 339 341 346 347 333 314 302 302 307 309 313 312 310 311 310 303 301 303 303 303 301 296 292 292 295 296 295 289 279 270 263 257 254 246 238 236 233 227 221 220 221 217 216 216 217 216 210 207 205 205 205 197 193 193 191 189
72 73 77 77 70 59 51 50 51 53 49 38 29 30 26 14 9 14 14 17 19 14 7 4 4 351 336 339 346 350 1 19 39 29 3 346 339 334 332 333 328 321 313 306 301 302 306 308 310 310 304 297 293 292 291 291 291 286 279 271 263 257 251 246 242 238 232 227 225 222 219 218 217 217 217 212 208 206 205 205 199 195 192 191 191
65 65 69 71 68 61 51 44 48 56 54 44 35 32 28 21 13 13 18 21 26 21 15 16 12 353 338 335 340 352 7 9 359 2 3 2 1 359 0 2 357 350 342 330 316 308 308 310 311 313 312 307 301 295 291 287 286 287 284 279 271 262 256 250 245 242 237 231 230 227 222 221 218 216 217 214 210 207 206 206 202 197 194 193 194
59 55 54 55 56 58 53 44 43 47 49 45 41 33 26 25 21 18 17 22 34 30 25 31 22 5 2 357 342 341 353 356 335 334 348 353 356 2 5 6 3 3 7 5 356 345 337 333 333 331 327 323 316 307 300 292 289 287 285 283 278 272 265 256 248 247 242 232 232 231 224 223 220 216 216 214 212 209 207 208 205 201 198 197 197
54 47 42 40 41 50 56 53 53 54 54 49 44 37 30 28 27 26 25 29 38 33 31 39 35 29 23 333 330 343 352 354 332 324 334 343 348 356 358 358 355 357 6 6 3 0 356 354 354 353 352 349 340 325 310 301 295 288 282 279 277 277 274 266 255 248 245 238 232 230 226 224 221 217 215 215 214 211 209 209 207 205 202 200 201
51 48 45 43 44 56 70 69 62 58 57 53 49 46 40 33 29 31 36 39 42 37 34 39 41 43 41 18 348 7 347 336 327 316 330 340 346 351 352 353 349 353 0 357 354 354 351 350 350 353 358 3 2 354 339 325 312 298 291 286 281 281 277 274 266 250 248 247 237 230 229 227 224 220 215 215 216 213 211 210 209 209 206 203 203
57 59 60 58 55 62 77 75 66 63 62 60 57 54 49 42 36 36 41 42 45 42 34 32 40 43 43 44 38 24 352 336 333 315 328 334 345 351 351 350 347 351 356 352 351 348 346 347 348 351 358 4 9 10 9 5 356 346 341 337 324 309 294 282 275 262 254 253 246 238 231 228 226 223 218 217 218 215 212 211 211 210 209 205 204
69 72 72 68 60 59 76 76 68 67 68 63 59 55 50 43 36 35 42 45 46 46 38 30 34 34 34 39 38 34 26 16 21 343 328 328 336 344 348 348 348 354 354 352 351 347 347 351 351 353 357 0 2 6 11 12 8 6 2 358 354 344 329 308 290 276 264 257 253 247 237 229 226 223 220 219 219 217 213 212 211 210 209 206 205
73 72 72 69 62 59 74 78 69 71 72 62 53 49 44 39 38 42 51 51 46 46 43 37 36 31 30 35 35 34 35 35 30 14 352 321 328 338 342 343 346 354 354 351 350 349 350 353 352 353 355 355 358 1 5 4 357 353 351 351 352 348 342 334 320 300 278 265 258 251 243 235 228 222 220 219 218 217 215 213 212 211 209 207 206
67 64 69 70 64 61 71 77 70 71 73 61 50 47 48 48 50 52 55 54 50 50 49 45 43 37 32 35 34 32 35 38 30 21 16 348 335 336 337 340 341 344 350 349 347 350 352 349 350 353 351 352 356 354 353 352 347 342 340 342 345 344 339 334 331 325 306 285 269 257 249 241 230 222 220 218 216 216 216 214 212 211 210 209 206
63 63 69 72 69 64 70 77 70 69 74 66 54 51 51 52 54 53 53 52 49 50 50 45 41 36 29 25 21 24 31 31 23 20 17 3 350 331 335 341 334 332 341 346 345 348 350 349 352 352 348 351 353 348 346 345 341 340 340 338 338 338 335 329 325 326 323 311 289 271 260 248 237 226 221 219 215 214 215 214 213 212 212 209 206
67 68 72 73 72 69 72 76 72 69 72 69 62 58 55 53 55 53 52 51 47 48 48 42 41 37 30 26 25 31 36 31 22 17 14 2 346 332 335 340 330 325 333 341 343 346 347 350 352 349 348 349 347 344 343 341 338 340 340 337 335 334 333 330 326 325 323 320 309 289 270 256 245 234 225 221 217 213 212 212 211 211 212 210 206
72 70 72 74 75 73 73 75 72 70 69 68 64 64 65 62 60 56 52 51 49 49 48 44 43 38 35 40 45 44 40 33 27 19 11 360 349 341 340 341 334 326 332 338 340 343 346 349 347 346 347 346 342 341 341 338 337 338 338 336 336 337 335 331 329 328 325 321 316 306 287 264 251 243 232 224 218 214 211 211 210 209 211 210 207
78 74 71 74 77 76 73 73 72 70 70 68 63 63 69 67 62 59 56 53 49 49 49 47 46 41 43 48 47 45 41 32 27 21 15 9 2 355 348 347 339 328 334 339 338 338 342 346 345 344 344 343 341 340 339 337 335 335 337 338 338 337 334 329 326 327 328 325 320 314 305 281 259 251 239 227 222 218 212 209 209 209 209 210 208
86 80 75 75 79 79 77 75 73 71 71 71 67 63 67 66 61 60 59 55 50 50 50 50 48 44 45 46 44 43 39 32 29 27 24 21 16 7 354 347 343 336 336 339 339 337 336 340 341 341 341 341 341 339 337 336 333 334 338 337 335 333 330 328 328 327 327 326 322 316 311 299 276 260 246 232 226 223 217 211 209 208 208 210 209
90 85 79 77 79 80 80 77 74 73 71 71 70 65 64 65 62 60 59 55 51 51 51 52 49 45 41 41 42 41 38 35 34 32 28 25 21 13 5 355 345 342 339 338 338 334 331 334 336 338 339 338 337 336 335 333 332 336 338 334 330 329 329 330 330 327 324 324 324 319 311 306 296 278 258 241 231 225 222 216 210 208 208 209 210
92 87 81 78 77 78 79 78 76 74 70 68 67 65 65 64 61 60 60 57 55 52 51 51 48 49 48 44 45 43 40 38 33 28 26 25 23 17 12 7 352 342 339 338 334 329 331 335 332 331 335 336 334 334 333 332 333 335 333 330 328 328 329 329 327 326 326 327 328 327 320 310 302 295 277 254 238 229 225 220 214 210 209 209 209
93 89 85 81 78 77 76 77 77 75 71 67 64 63 64 63 59 59 60 60 58 53 52 51 48 52 55 51 49 44 37 33 30 27 25 22 20 16 12 7 359 346 332 335 332 322 328 333 329 326 330 333 332 332 332 331 332 332 330 329 329 328 327 326 326 327 328 328 328 329 328 320 308 301 290 269 251 240 232 224 219 213 210 210 210
94 92 91 88 83 80 76 76 77 75 72 69 66 62 62 62 59 58 59 61 60 56 54 53 49 52 56 51 47 42 35 31 29 27 23 20 16 11 7 2 357 350 333 326 323 319 323 327 326 325 327 329 330 330 330 329 328 329 329 329 327 326 325 325 325 326 325 325 326 327 329 327 320 311 298 280 263 249 238 231 226 217 212 210 210
100 97 95 92 88 84 79 77 79 76 75 75 72 67 62 59 58 58 59 59 59 57 54 53 50 52 54 49 45 39 31 29 29 24 18 15 11 6 2 357 353 348 337 325 313 318 323 324 324 324 325 326 328 328 327 326 326 328 329 328 326 325 325 324 323 324 323 325 328 330 330 329 326 322 311 291 270 254 243 237 233 223 216 211 209
104 100 95 91 88 86 81 80 80 79 78 79 77 73 68 63 58 58 59 58 58 58 56 53 53 54 52 47 43 37 30 28 25 18 13 9 5 1 357 353 350 348 341 331 316 316 322 324 323 323 324 326 327 327 325 325 326 328 328 327 326 325 325 324 322 323 325 326 326 323 322 324 326 325 324 309 282 262 248 240 235 228 220 214 209
103 100 96 90 86 83 81 77 78 81 81 83 83 76 71 67 62 60 62 60 60 62 59 54 54 53 49 46 41 35 31 27 21 16 10 5 360 357 356 353 351 351 348 339 327 320 323 327 325 322 325 327 325 325 325 324 325 326 327 326 325 325 324 324 323 322 323 320 318 317 316 321 325 321 323 322 301 273 254 243 237 230 223 218 212
106 102 96 88 82 79 75 70 75 83 85 90 93 82 72 70 66 62 62 60 62 66 64 59 56 52 47 45 40 33 29 25 21 17 9 3 0 358 357 358 354 354 354 345 335 328 326 328 328 327 329 328 326 326 325 323 323 323 324 323 323 323 322 323 322 320 318 316 316 318 319 319 318 313 313 321 316 290 263 249 242 234 227 222 216
108 102 95 88 81 76 68 62 66 80 93 101 102 88 73 69 68 65 62 60 63 67 67 61 55 51 48 43 36 31 29 27 23 18 10 6 5 2 360 0 356 352 352 345 335 328 325 327 329 330 329 327 326 327 325 322 321 321 321 321 321 321 321 320 319 316 315 316 317 318 319 316 311 307 308 312 318 307 278 259 250 240 231 225 219
108 102 96 88 81 72 64 61 63 73 91 107 108 93 74 71 73 70 66 62 61 63 65 62 56 53 47 37 34 36 32 28 23 17 13 10 6 3 1 358 353 347 346 344 335 329 323 322 327 328 326 324 324 325 324 322 323 322 320 319 320 320 319 318 317 317 316 317 318 316 314 312 308 305 307 310 315 315 296 273 259 246 235 227 220
108 102 93 82 72 63 61 67 70 71 80 99 107 93 78 77 78 73 71 68 62 63 67 67 64 56 42 33 40 41 30 26 23 15 11 9 5 2 359 354 348 343 341 342 338 333 327 322 324 325 324 323 322 324 326 326 326 324 322 320 320 319 318 317 317 317 317 316 316 314 311 310 310 307 309 314 315 313 307 289 268 251 238 230 221
107 99 91 79 64 57 62 75 77 73 75 85 93 87 80 81 78 74 74 69 59 61 71 72 65 52 41 41 47 37 24 22 17 9 8 9 3 360 357 351 346 341 338 340 340 337 333 328 327 327 327 326 325 325 329 328 325 322 321 320 320 319 317 316 315 315 314 312 311 312 310 309 310 312 313 315 313 309 309 304 283 259 242 232 223
106 100 93 79 61 55 65 77 78 74 76 80 83 82 77 77 78 76 74 69 57 57 74 77 65 54 48 49 46 27 18 16 8 3 6 7 1 358 356 349 344 340 335 336 338 337 335 332 331 331 331 329 327 325 324 324 321 319 320 319 317 317 316 313 311 311 311 310 309 310 310 307 308 310 308 306 305 305 306 309 299 274 252 237 226
107 104 95 81 65 59 67 76 76 76 77 78 78 77 74 73 75 75 74 72 58 47 68 80 64 56 55 51 38 18 13 10 4 1 4 4 359 357 354 349 344 339 333 330 332 334 332 330 329 330 328 324 324 324 323 323 321 318 318 316 311 312 313 309 306 306 306 306 307 308 308 307 305 304 304 303 302 301 301 304 304 288 266 248 234
112 107 94 84 72 65 70 76 77 76 75 73 69 68 69 68 68 70 70 73 59 40 56 82 67 54 56 50 27 13 13 10 1 359 3 4 359 354 352 350 344 337 331 326 326 327 327 327 327 326 323 319 321 323 322 321 318 314 314 312 308 307 309 305 301 300 301 301 302 304 304 302 302 302 303 303 301 300 300 298 298 295 279 260 244
118 109 92 84 79 73 73 75 77 77 73 70 65 62 62 62 67 72 63 62 63 42 36 61 71 53 47 39 16 12 16 12 4 3 4 3 359 353 350 349 344 337 329 323 321 322 321 321 323 323 322 320 321 322 318 315 314 313 313 312 308 307 306 304 301 301 301 300 300 300 299 297 299 299 299 299 299 300 300 296 293 294 288 273 254
121 112 93 82 77 74 73 73 74 75 71 69 69 68 65 62 64 68 53 48 60 45 24 35 73 50 31 28 22 18 16 12 9 9 7 1 357 352 348 347 346 341 332 324 319 317 317 316 318 320 319 317 320 320 317 315 315 314 313 311 307 306 303 301 302 302 301 304 303 299 297 296 297 296 295 295 296 296 295 294 292 290 286 281 266
126 122 103 86 77 72 71 71 69 69 70 68 71 73 69 65 62 60 49 43 51 45 23 20 28 22 20 27 29 21 18 14 10 7 4 357 351 347 345 345 345 342 337 330 322 316 313 312 313 316 317 315 318 320 318 317 316 314 312 309 304 302 299 295 295 295 296 301 303 297 294 294 294 292 291 291 291 291 292 293 292 288 282 277 270
132 131 121 102 84 71 67 67 66 66 65 63 68 74 67 62 59 53 43 35 39 37 17 8 3 12 27 34 32 23 18 15 10 3 357 351 347 345 344 344 343 341 339 337 332 324 317 312 310 312 316 315 314 317 318 318 315 312 310 308 305 302 297 294 291 290 293 297 297 292 289 289 290 289 285 286 289 290 291 292 291 289 282 274 268
134 134 133 123 102 78 66 64 63 62 60 57 60 71 68 61 57 48 35 24 24 27 19 17 23 50 43 35 30 23 17 13 8 0 352 348 344 342 343 343 342 341 340 339 338 332 324 319 314 313 316 317 315 316 318 317 314 311 308 306 306 304 298 295 292 290 292 292 288 282 281 283 286 283 279 283 288 288 289 292 291 288 283 276 268
136 135 136 130 119 94 68 60 58 56 55 54 55 63 67 64 57 44 31 19 13 17 25 30 35 34 19 25 24 16 10 8 5 357 350 345 341 339 340 341 341 341 341 341 339 334 329 326 322 319 319 319 319 318 319 318 315 311 309 307 306 304 299 295 294 292 292 290 283 271 267 278 282 278 276 281 287 288 289 291 290 288 282 275 268
137 136 135 130 121 110 85 64 56 51 49 47 48 54 60 58 53 39 31 26 24 22 28 34 34 15 343 356 4 2 1 2 359 352 346 341 338 337 337 338 340 339 340 342 341 339 335 330 326 325 323 322 322 322 321 320 318 316 314 311 307 304 298 293 294 291 288 288 281 267 263 275 279 275 276 282 285 287 289 289 289 287 281 273 267
138 139 140 137 133 127 107 81 62 52 48 43 40 44 51 52 47 40 33 29 29 29 29 34 32 20 345 340 350 353 353 351 346 342 341 338 337 337 335 335 337 337 339 341 341 341 340 333 328 330 327 325 325 325 325 324 323 320 316 310 308 307 298 290 293 293 290 288 282 273 269 276 279 279 280 284 284 283 285 288 289 285 278 272 265
135 131 131 133 134 130 110 92 75 59 50 44 38 36 45 47 43 40 34 27 27 29 28 32 33 25 0 344 346 345 339 336 336 337 339 338 338 338 337 335 335 336 337 338 339 341 341 336 332 332 330 329 329 328 328 327 326 324 317 309 310 308 296 286 292 296 293 286 280 274 266 268 274 275 276 280 283 282 283 289 293 286 275 269 262
142 133 128 127 128 126 110 93 81 67 54 46 37 33 39 42 39 37 30 25 26 29 29 29 27 18 2 345 339 335 331 332 335 338 341 341 340 340 340 338 335 335 337 338 339 341 340 336 334 332 332 332 331 330 330 329 329 328 321 316 315 309 297 292 294 295 292 285 283 278 266 267 273 276 275 280 290 291 289 295 302 293 275 263 255